Theta_e
330 331 331 330 331 330 330 329 330 329 329 328 328 328 328 327 325 325 324 324 323 323 322 322 322 322 323 323 323 323 323 323 323 321 319 319 318 318 318 319 319 318 317 315 314 313 312 311 310 309 304 298
328 329 329 328 329 328 328 328 328 328 327 327 327 326 324 323 322 323 323 323 322 321 320 320 321 321 321 322 322 321 320 320 320 318 318 317 317 316 316 317 316 316 315 314 312 311 310 309 308 307 304 296
319 324 326 327 326 326 326 326 326 326 325 325 324 323 320 319 319 319 320 321 321 319 318 318 319 320 320 320 320 320 319 319 319 317 316 315 315 314 314 314 315 314 313 312 311 310 309 307 305 304 300 296
310 320 321 323 324 324 324 324 325 325 324 323 321 320 318 316 312 312 312 315 314 316 315 315 315 318 319 319 319 319 318 317 317 316 315 314 313 312 311 311 311 311 311 310 309 308 307 304 302 296 295 295
308 312 319 319 320 321 322 323 323 322 320 317 316 314 313 309 301 300 301 303 304 310 304 313 314 316 317 317 316 317 317 316 315 314 313 312 311 310 308 305 305 306 308 308 307 306 304 301 295 295 295 295
306 309 315 308 309 310 316 318 318 313 307 310 303 310 304 297 299 296 295 298 306 301 304 307 312 312 314 314 314 314 315 315 314 312 311 310 308 307 305 302 293 294 300 303 303 302 300 294 293 294 294 294
305 305 305 303 303 305 311 309 305 303 304 299 298 296 295 297 295 294 295 296 299 301 308 306 309 309 310 310 309 310 311 312 312 310 308 307 306 304 301 292 291 291 291 291 298 297 293 292 292 293 293 293
303 303 302 302 301 302 302 301 300 298 298 297 296 295 295 293 294 294 294 304 306 306 300 303 306 306 306 304 302 301 298 303 304 305 305 303 301 298 295 290 290 291 290 290 291 291 291 291 291 292 292 291
301 301 300 300 299 299 297 297 296 296 295 295 295 295 295 293 294 293 295 294 293 292 291 289 290 290 290 290 292 296 288 288 291 291 288 289 292 289 291 290 289 290 290 290 290 290 291 291 290 291 291 290
302 301 299 298 297 296 296 296 294 295 294 294 294 294 294 295 293 293 292 290 290 290 290 289 288 288 288 288 289 291 287 287 288 287 288 288 289 289 289 289 289 290 291 289 289 289 289 290 289 290 289 289
300 298 298 297 296 295 294 294 294 294 294 293 293 294 295 293 291 291 290 290 290 289 289 289 288 287 288 288 287 289 287 287 287 287 287 287 288 288 288 288 288 288 288 288 288 288 288 289 288 288 288 288
298 297 295 295 298 296 295 294 293 293 293 293 292 293 294 293 291 291 290 290 289 289 288 288 288 288 287 287 287 288 287 287 286 286 286 287 287 287 287 287 287 287 288 287 287 288 287 287 288 288 288 288
297 295 294 294 294 294 297 294 293 294 293 292 292 293 294 293 291 290 290 289 289 288 288 288 287 287 286 287 286 287 286 286 286 286 286 287 286 286 286 286 288 287 287 287 287 287 287 287 287 287 287 288
294 294 293 293 293 293 296 293 293 293 293 292 291 292 293 293 291 291 290 289 288 288 288 287 287 287 286 285 286 286 286 286 285 285 285 286 286 286 285 286 289 286 286 286 286 286 286 286 287 287 287 287
294 294 293 293 292 293 294 293 293 293 292 291 291 292 292 292 292 291 290 289 288 287 287 287 287 286 286 284 285 285 285 286 285 285 285 285 285 285 286 286 286 286 286 285 285 286 286 286 286 286 287 287
293 293 293 293 292 292 293 294 293 292 291 292 290 291 291 291 291 292 289 289 288 288 287 287 286 285 285 284 284 285 285 286 285 285 285 286 285 285 285 285 286 287 285 284 285 285 285 286 286 286 286 286
293 293 293 293 292 292 294 293 292 291 291 291 290 290 291 290 290 291 290 289 289 290 287 286 286 285 286 285 285 285 285 285 284 284 285 285 286 285 285 285 285 286 284 284 284 285 285 285 285 286 286 286
294 293 294 294 293 293 293 293 292 292 291 291 290 290 290 290 290 291 290 289 288 288 286 286 286 285 284 284 284 285 285 284 284 284 284 284 285 288 285 284 284 283 284 283 284 284 285 285 285 285 286 286
295 294 294 294 293 293 293 293 292 291 290 290 290 289 289 290 290 290 289 289 288 287 286 286 285 285 284 284 285 284 284 284 283 284 284 284 284 283 283 283 285 283 283 283 284 284 285 285 285 285 286 286
296 294 294 294 295 293 293 292 292 291 290 290 289 289 289 289 290 289 289 288 288 287 286 286 285 285 284 284 284 284 284 284 284 284 284 284 283 282 283 283 282 283 283 283 284 284 284 284 286 285 285 285
295 294 293 293 293 293 293 292 292 291 290 289 289 289 288 289 290 289 288 288 288 287 286 286 285 284 284 285 283 283 283 283 284 284 284 283 284 282 281 282 282 282 283 284 284 284 284 284 285 284 284 285
294 293 293 293 292 293 292 292 291 290 290 289 289 288 288 289 290 289 288 288 287 286 286 285 285 284 284 284 283 283 283 283 283 283 283 282 282 282 282 282 282 283 283 284 284 283 283 283 283 284 284 285
293 292 291 290 290 291 291 290 289 289 289 289 288 288 288 288 289 289 288 287 287 286 286 285 284 284 284 284 283 283 282 282 283 283 281 282 281 283 283 282 282 282 283 283 283 283 283 283 283 283 284 285
291 291 291 290 289 289 290 289 289 289 290 289 288 289 288 288 288 288 288 287 286 286 286 285 284 284 284 283 283 283 282 282 282 282 281 281 282 282 283 283 282 282 282 282 281 283 283 282 282 282 285 284
291 290 289 289 290 290 290 290 289 289 289 289 289 288 288 288 288 288 287 287 286 286 287 285 284 284 283 283 283 283 283 282 282 282 282 283 283 282 281 282 282 282 281 280 280 280 281 282 282 285 284 282
292 292 292 291 291 291 291 290 289 289 288 289 289 288 288 288 288 287 287 287 286 286 285 284 284 284 283 283 283 283 282 281 285 282 282 282 280 281 280 280 281 283 279 279 278 278 279 281 282 284 282 282
292 292 292 292 291 292 290 290 290 289 289 289 288 288 287 288 287 287 286 287 286 286 285 285 284 284 283 283 284 283 282 282 282 281 281 281 281 280 281 281 282 281 280 278 279 279 278 277 278 282 280 280
293 292 291 289 290 289 288 287 288 288 287 287 287 287 287 287 287 287 287 286 286 286 285 284 284 283 283 283 284 283 282 282 282 281 281 280 281 281 280 278 280 282 280 279 279 276 278 276 277 276 277 278
292 291 289 288 288 288 287 287 286 285 284 287 287 287 286 287 287 287 287 286 286 286 285 284 284 283 283 283 283 283 282 282 282 281 281 282 281 279 279 279 278 280 280 280 281 278 277 276 276 276 276 278
292 291 290 288 287 287 286 285 285 286 286 285 286 287 287 286 287 287 286 286 286 285 285 284 283 283 283 282 283 282 282 282 281 281 281 281 281 280 279 279 278 278 281 281 282 279 278 278 276 275 277 277
292 290 290 290 290 290 289 288 287 289 289 288 288 288 287 287 286 286 286 285 285 285 285 284 283 283 283 283 282 283 281 281 281 281 281 281 280 280 282 280 278 279 278 279 280 280 279 281 280 279 276 275
Wind_Speed
12 13 15 16 16 16 16 16 15 15 15 15 15 14 14 14 14 14 13 13 13 12 12 11 11 11 11 11 11 11 10 10 11 11 11 11 11 11 12 12 12 12 13 13 13 13 13 12 12 12 9 6
10 11 14 15 15 15 15 15 15 15 15 15 15 14 14 14 14 14 14 14 13 13 12 12 11 11 11 11 10 10 10 10 11 10 11 11 11 11 12 12 12 12 13 13 13 13 13 12 12 11 9 5
6 10 10 11 12 13 14 14 14 15 14 14 14 14 13 12 12 12 13 14 14 13 13 12 12 12 11 11 11 11 10 10 10 10 10 11 11 11 12 12 12 13 13 13 13 13 13 12 12 11 6 4
5 8 9 10 11 11 12 13 14 14 12 12 11 11 10 9 7 7 7 11 9 12 12 10 6 12 12 12 12 11 11 11 11 10 10 11 11 12 12 13 13 13 13 13 13 13 13 12 11 6 5 5
5 5 8 8 9 10 10 11 12 13 10 9 9 8 8 8 5 4 4 5 5 8 5 7 9 12 12 12 12 11 11 11 11 11 11 11 11 12 12 12 12 12 12 13 13 13 12 10 6 6 6 6
4 4 6 5 5 5 6 8 9 7 5 6 5 8 7 5 4 4 4 4 6 4 5 6 10 11 12 12 11 11 11 11 11 11 11 11 12 12 11 11 6 5 8 11 11 11 10 6 5 5 5 6
5 5 5 5 4 4 5 5 4 5 5 5 5 5 5 4 4 4 3 3 4 4 7 6 10 11 11 11 11 11 12 11 11 12 11 12 12 11 11 6 5 5 5 5 9 8 6 5 5 5 5 5
6 5 5 5 4 4 4 4 5 5 5 5 5 5 5 5 4 4 3 5 6 5 4 6 9 11 11 11 11 11 7 10 10 11 11 11 10 7 4 5 4 5 4 5 4 5 5 5 5 5 5 5
7 6 6 6 6 5 5 5 6 6 6 5 6 5 5 5 4 4 4 3 3 4 4 4 4 4 5 5 5 7 6 5 5 5 5 4 4 3 3 4 3 3 4 3 3 4 4 4 3 4 4 5
7 7 7 7 6 6 5 6 6 6 6 6 6 5 5 5 6 5 6 4 4 3 4 4 5 5 5 5 5 4 6 5 4 3 3 3 3 2 2 3 2 2 2 3 3 3 3 4 3 4 4 4
6 7 6 6 6 7 6 6 6 7 6 6 6 6 6 7 6 6 6 5 4 4 3 4 5 5 5 5 5 3 6 4 3 2 2 2 2 2 2 3 2 3 3 2 3 3 3 3 3 3 4 4
7 6 7 7 7 7 7 7 7 7 6 6 6 6 6 6 6 7 6 5 5 4 3 4 4 4 5 5 4 3 5 4 2 2 2 2 1 2 1 3 2 3 3 3 3 3 3 3 3 4 5 5
7 7 7 7 7 8 8 8 7 7 6 6 6 6 7 6 7 6 6 6 5 4 4 4 4 5 5 4 4 3 3 3 3 3 2 2 2 2 3 3 4 3 3 3 3 4 3 3 3 4 4 4
8 8 9 9 9 8 7 8 7 5 6 6 7 7 7 7 7 7 7 6 5 6 5 5 4 5 5 5 4 4 4 3 3 4 2 2 2 3 3 4 3 3 4 4 3 4 4 3 4 3 4 5
10 9 9 9 8 7 8 7 7 6 6 6 6 7 7 6 6 7 6 6 6 4 5 5 5 5 5 5 4 3 3 2 3 2 3 3 3 3 4 4 3 4 4 4 4 4 4 4 4 4 4 4
10 11 10 9 8 8 7 7 7 7 6 7 6 6 7 6 6 6 6 7 6 6 6 6 6 5 5 5 4 3 3 3 2 3 2 3 3 3 3 4 5 4 4 4 5 4 4 4 5 5 5 5
11 9 9 9 9 7 7 7 7 7 7 7 6 6 7 7 6 6 7 7 7 6 6 6 6 5 4 4 5 3 3 3 3 3 3 3 2 4 4 5 5 3 3 5 5 4 4 4 4 4 5 5
11 11 9 8 7 7 7 7 7 7 6 6 6 6 6 7 7 7 6 7 6 6 6 6 5 5 5 4 4 3 4 5 3 4 4 2 4 4 5 5 3 4 5 4 3 4 4 3 4 4 5 5
13 10 10 9 8 8 8 7 7 6 6 6 6 6 6 7 7 7 7 7 7 7 6 6 6 5 5 4 4 5 3 5 3 4 4 3 5 3 4 3 3 3 3 4 5 5 5 5 4 3 5 4
13 12 10 9 8 7 7 7 7 7 7 7 6 6 6 7 7 7 7 7 7 7 6 6 6 6 5 5 5 5 4 4 5 4 4 1 3 5 3 3 3 3 3 3 5 4 5 4 4 5 4 5
11 10 10 10 10 10 9 9 8 7 6 6 6 6 7 7 7 7 7 7 7 7 7 6 6 5 5 5 5 5 4 4 4 4 4 3 1 2 4 4 3 3 4 4 4 5 4 4 3 4 4 4
11 10 9 8 8 8 9 8 7 6 7 7 7 7 7 7 7 7 7 8 7 7 6 6 5 5 5 5 5 5 4 4 3 3 4 4 2 3 4 5 5 4 4 3 4 5 5 5 3 3 3 3
9 8 6 5 6 7 7 6 6 6 7 7 7 8 7 8 8 8 8 8 8 7 7 6 6 6 5 5 6 6 5 4 4 3 2 4 4 3 4 5 3 1 3 3 3 4 5 4 3 3 1 1
9 8 9 9 6 6 7 7 7 7 9 8 9 9 9 9 8 8 8 8 8 7 7 7 7 7 5 5 6 7 6 6 5 6 5 4 5 5 4 3 1 1 2 1 0 3 4 3 3 3 1 2
14 14 10 8 11 12 11 11 10 9 9 9 9 9 10 10 9 8 8 8 8 8 8 7 6 6 5 5 6 6 6 5 5 4 4 4 3 3 3 4 3 2 1 5 3 2 4 6 3 2 3 2
15 15 17 17 17 15 14 12 13 13 11 11 9 9 9 8 8 8 8 8 8 7 8 8 7 7 7 7 6 5 4 4 4 4 4 4 5 3 3 2 3 5 1 6 2 3 7 7 5 3 5 4
15 13 10 10 8 11 8 7 7 6 6 7 8 8 8 8 8 8 8 8 8 8 8 8 8 7 6 6 6 6 6 5 5 5 5 3 6 4 3 3 3 5 2 3 3 3 2 4 6 4 5 3
10 8 5 3 4 4 4 5 5 5 6 6 6 9 9 8 9 9 9 9 8 7 7 8 8 6 6 7 6 7 8 7 6 5 5 4 3 6 4 1 2 3 4 2 4 3 2 0 1 1 3 5
10 10 8 7 8 7 7 6 6 6 6 8 8 7 9 11 9 10 9 9 9 8 9 7 7 7 7 7 6 6 6 7 7 6 5 5 5 4 6 4 1 1 3 3 1 6 4 2 2 1 2 4
13 14 14 13 11 11 8 7 9 12 13 11 13 15 7 6 9 9 9 8 9 8 8 8 8 7 8 7 7 7 6 5 6 6 6 6 4 3 0 5 4 2 2 3 3 3 2 1 3 5 2 1
12 12 12 16 17 17 17 16 13 12 12 13 10 8 10 9 8 9 10 8 8 8 8 8 8 8 8 7 7 6 7 7 7 7 6 5 4 4 4 5 4 6 4 2 3 3 4 6 4 5 5 3
Wind_Direction
183 185 182 180 177 175 173 170 164 161 162 161 158 156 152 148 143 140 136 131 126 120 115 112 110 109 108 104 105 104 101 98 95 91 86 83 80 75 72 69 66 63 59 55 52 49 45 44 42 41 40 34
179 180 180 178 174 172 168 167 165 164 163 162 159 155 150 147 144 141 136 131 127 123 118 115 114 112 108 102 100 98 94 91 87 83 78 74 72 70 67 63 61 58 55 52 49 44 40 40 39 38 40 35
182 178 178 175 172 171 170 168 166 163 162 160 157 151 144 141 140 139 136 132 126 121 119 120 120 118 113 110 106 103 99 93 87 81 75 70 66 63 61 58 55 54 53 50 46 41 38 34 31 31 34 30
177 177 176 174 173 172 172 169 166 163 159 155 148 141 132 118 110 104 114 120 120 121 117 112 111 120 117 115 113 108 104 99 92 86 79 73 66 62 56 51 48 47 46 44 41 39 35 31 27 24 19 20
174 179 170 171 173 172 172 169 165 160 148 139 135 122 109 104 100 102 102 101 105 101 106 117 115 116 114 111 109 106 102 98 95 89 82 77 72 68 61 51 43 40 41 40 38 34 32 29 27 18 16 12
176 177 159 158 171 169 169 165 160 144 130 125 120 117 112 112 118 114 116 118 113 119 114 113 114 115 113 110 105 103 98 93 87 80 76 72 69 65 59 53 46 32 31 34 36 33 30 26 22 18 16 13
177 171 149 156 158 166 158 156 134 132 130 124 124 123 127 128 124 130 129 122 130 133 125 115 113 112 109 100 90 83 81 78 74 72 68 65 63 59 53 45 38 34 29 22 25 26 24 22 15 13 19 15
177 170 156 158 160 161 155 144 139 140 138 137 136 136 135 133 138 136 143 149 132 111 102 100 98 99 95 89 83 78 63 61 65 66 63 64 61 52 52 52 42 38 31 28 19 21 22 17 11 13 12 13
182 170 158 165 168 163 163 157 152 154 151 151 148 142 138 138 135 131 121 106 107 113 113 108 106 96 93 90 76 77 78 72 63 62 64 51 57 53 71 71 55 65 51 35 29 25 16 15 8 9 9 6
177 163 173 175 175 168 175 169 169 164 164 160 160 153 147 137 128 131 131 137 142 143 142 129 119 102 96 83 83 74 87 74 74 69 77 99 112 128 135 122 120 92 86 67 48 36 26 17 8 2 1 3
176 184 180 173 174 170 183 177 174 179 174 169 162 162 157 147 147 144 148 153 157 156 150 127 119 113 101 104 100 91 104 99 86 98 109 135 149 161 147 129 118 107 91 80 63 46 38 21 10 2 356 356
186 182 177 180 177 183 180 174 187 183 178 161 165 166 162 151 150 153 156 163 160 163 142 137 125 116 108 107 110 107 108 115 112 125 154 158 142 135 117 95 76 73 69 59 55 49 29 17 11 1 354 347
189 181 181 181 183 187 183 186 187 182 167 168 167 167 163 156 154 153 157 165 166 150 149 141 134 131 129 119 129 121 122 130 142 134 147 136 122 102 79 62 49 43 42 40 39 37 21 14 7 359 353 349
184 187 187 190 190 186 185 190 181 171 178 173 166 170 170 167 159 164 165 164 162 158 159 157 146 136 141 141 144 135 145 169 145 147 132 113 94 88 73 62 35 43 33 26 23 22 13 11 1 354 351 345
193 183 195 192 187 184 190 178 171 179 177 172 178 173 168 165 164 158 157 159 165 161 161 164 157 154 148 145 159 154 151 160 147 139 119 114 97 86 78 66 41 42 36 20 14 8 10 359 356 354 349 340
192 192 192 189 187 191 184 171 178 178 178 182 180 171 170 166 165 160 159 160 167 170 169 171 165 159 156 166 162 157 148 140 127 119 103 85 79 73 77 63 41 30 41 21 8 357 3 357 358 352 347 344
194 189 188 185 191 186 178 177 174 181 186 183 177 172 172 170 165 168 166 170 171 172 174 169 163 163 170 165 160 156 144 126 112 96 89 69 78 66 57 55 29 22 40 26 356 355 352 355 353 348 345 344
190 190 186 186 184 180 174 180 180 188 185 179 175 173 175 170 173 171 170 165 170 166 169 170 169 167 170 166 158 143 134 128 128 109 94 87 72 53 58 61 32 28 20 4 344 349 341 352 346 344 346 349
192 185 184 182 181 181 179 178 185 183 177 179 178 171 176 176 177 175 172 170 164 168 169 170 171 175 174 160 149 142 143 126 107 106 113 118 92 74 64 63 48 43 33 357 351 340 342 339 341 354 349 346
188 184 182 178 177 174 176 177 185 182 181 179 172 176 176 182 180 174 174 168 164 166 175 174 175 177 161 160 146 142 137 125 128 120 101 68 130 104 65 77 40 32 20 359 343 333 333 330 341 353 350 355
183 176 178 178 178 178 175 182 185 178 170 171 177 179 180 181 180 176 175 171 170 166 173 173 173 172 166 159 151 146 142 135 142 132 116 78 63 108 117 78 54 26 16 353 337 326 327 332 347 358 353 350
180 178 172 172 170 170 179 183 180 173 167 179 181 176 185 178 180 178 177 174 171 169 171 168 167 166 167 159 148 140 138 140 125 120 122 105 54 76 94 66 51 15 354 347 333 333 327 333 1 350 352 344
167 156 151 139 149 162 173 175 174 166 177 182 177 187 179 176 182 180 179 175 170 167 169 165 166 170 171 160 152 143 140 139 131 120 113 122 99 62 73 99 88 58 321 319 324 325 323 332 347 343 333 25
160 158 165 164 150 168 185 175 174 183 188 179 188 185 178 182 183 180 177 175 172 167 167 169 174 171 167 166 155 154 154 159 157 150 129 131 116 102 80 59 62 359 348 292 247 336 329 335 339 343 353 44
171 172 170 173 187 189 182 185 183 187 190 188 189 180 182 182 182 177 174 174 168 173 171 173 164 164 174 168 164 167 170 157 152 156 150 131 104 111 85 36 358 357 62 32 11 32 17 348 16 8 37 57
180 182 183 181 186 186 184 179 182 191 188 190 182 181 181 181 179 176 177 173 175 171 172 169 174 176 174 172 169 159 144 143 147 143 136 143 76 27 109 63 346 324 83 30 86 14 336 348 2 41 50 57
186 186 185 186 184 183 175 186 181 172 171 162 174 180 179 178 178 175 177 174 176 172 178 177 172 180 169 173 161 150 155 153 154 161 157 150 129 99 45 87 8 357 28 135 138 138 85 6 7 331 9 348
179 167 144 101 98 104 104 151 138 129 137 162 161 185 182 185 181 178 178 177 176 174 175 175 177 163 170 175 175 167 160 163 164 161 157 141 130 129 105 51 19 8 356 112 131 29 77 169 101 334 347 342
156 138 121 109 91 94 86 82 116 128 163 181 188 180 189 194 178 180 179 175 178 175 175 173 170 171 173 172 175 166 164 171 171 169 163 159 151 154 140 159 138 349 356 5 332 139 112 62 29 212 279 347
162 167 161 154 151 159 165 163 170 187 186 183 194 200 172 163 184 179 179 178 176 176 167 173 173 170 169 174 173 175 168 154 146 163 163 177 156 149 94 132 124 98 351 354 15 44 101 153 168 166 220 90
167 168 175 178 179 177 179 183 197 194 191 189 186 162 175 179 173 182 179 180 177 175 172 169 171 173 175 171 172 166 156 170 176 166 160 147 139 157 139 122 118 152 161 56 17 32 71 77 82 125 122 194